This demonstration page uses our WeatherBlox Daily Observations layout. Learn more.

Left ArrowRight Arrow

Hourly Observations for May 14, 2021

Temp ( °F °C ) Dew Point ( °F °C ) Humidity (%) Winds ( mph kmh ) Pressure ( in mb ) Visibility ( mi km ) Precip ( " mm )
12:53 am 00:53 Cloudy 54 12.2 47 8.3 77 77 S 14 22 30.17 1022 10 16 0.02 0.51
1:53 am 01:53 Mostly Clear 53 11.7 47 8.3 80 80 S 13 20 30.14 1021 10 16 0.00 0.00
2:53 am 02:53 Clear 53 11.7 49 9.4 86 86 S 10 17 30.09 1019 10 16 0.00 0.00
3:53 am 03:53 Mostly Clear 53 11.7 49 9.4 86 86 S 7 11 30.10 1019 10 16 0.00 0.00
4:53 am 04:53 Clear 52 11.1 49 9.4 89 89 SSE 8 13 30.09 1019 10 16 0.00 0.00
5:53 am 05:53 Clear 52 11.1 48 8.9 86 86 S 9 15 30.08 1019 10 16 0.00 0.00
6:53 am 06:53 Sunny 53 11.7 48 8.9 83 83 S 6 9 30.10 1019 10 16 0.00 0.00
7:53 am 07:53 Sunny 55 12.8 48 8.9 77 77 SSW 6 9 30.11 1020 10 16 0.00 0.00
8:53 am 08:53 Sunny 58 14.4 49 9.4 72 72 SSW 12 19 30.11 1020 10 16 0.00 0.00
9:53 am 09:53 Sunny 60 15.6 51 10.6 72 72 SW 10 17 30.10 1019 10 16 0.00 0.00
10:53 am 10:53 Mostly Sunny 62 16.7 52 11.1 70 70 SW 12 19 30.10 1019 10 16 0.00 0.00
11:15 am 11:15 Mostly Cloudy 64 18 54 12 68 68 SW 8 13 30.07 1018 10 16 0.00 0.00
11:53 am 11:53 Partly Cloudy 65 18.3 54 12.2 68 68 VRB 7 11 30.10 1019 10 16 0.00 0.00
12:08 pm 12:08 Mostly Cloudy 64 17.8 54 12.2 70 70 SW 9 15 30.06 1018 10 16 0.00 0.00
12:53 pm 12:53 Cloudy 65 18.3 53 11.7 66 66 WSW 5 7 30.09 1019 10 16 0.00 0.00
1:53 pm 13:53 Cloudy 66 18.9 54 12.2 65 65 VRB 3 6 30.06 1018 10 16 0.00 0.00
2:02 pm 14:02 Cloudy 66 18.9 53 11.7 63 63 Calm 30.02 1017 10 16 0.00 0.00
2:53 pm 14:53 Cloudy 68 20 55 12.8 63 63 ENE 3 6 30.05 1018 10 16 0.00 0.00
3:53 pm 15:53 Mostly Cloudy 68 20 53 11.7 59 59 SSE 5 7 30.04 1017 10 16 0.00 0.00
4:53 pm 16:53 Cloudy 67 19.4 54 12.2 63 63 SSE 7 11 30.05 1018 10 16 0.00 0.00
5:53 pm 17:53 Cloudy 66 18.9 53 11.7 63 63 SE 6 9 30.04 1017 10 16 0.00 0.00
6:53 pm 18:53 Mostly Sunny 66 18.9 54 12.2 65 65 SSE 6 9 30.03 1017 10 16 0.00 0.00
7:53 pm 19:53 Partly Cloudy 66 18.9 54 12.2 65 65 S 9 15 30.01 1016 10 16 0.00 0.00
8:53 pm 20:53 Mostly Clear 64 17.8 54 12.2 70 70 SSE 6 9 30.02 1017 10 16 0.00 0.00
9:53 pm 21:53 Clear 62 16.7 55 12.8 78 78 SE 6 9 30.02 1017 10 16 0.00 0.00
10:53 pm 22:53 Clear 60 15.6 54 12.2 80 80 SE 6 9 30.01 1016 10 16 0.00 0.00
11:53 pm 23:53 Mostly Cloudy 59 15 54 12.2 83 83 SSE 5 7 30.03 1017 10 16 0.00 0.00

Powered by AerisWeather